Location: Melara
(45.0500°N, 11.1833°E)
Time: 23:24:03
(UTC+00:00)

UKube-1 - Pass Details

Date: 31 May 2024
Orbit: 581 x 590 km, 98.3° (Epoch: 21 June)

Event Time Altitude Azimuth Distance (km) Brightness Sun altitude
Rises 01:46:49 0° 356° (N) 2,816 ? -14.4°
Reaches altitude 10° 01:49:43 10° 334° (NNW) 1,910 ? -14.1°
Maximum altitude 01:52:08 15° 298° (WNW) 1,585 ? -13.8°
Enters shadow 01:54:16 11° 266° (W) 1,836 ? -13.6°
